Regional Weather Roundup
Issued by NWS

Home | Current Version | Previous Version | Graphics & Text | Print | Product List | Glossary On
Versions: 1 2 3 4 5 6 7 8 9 10 11 12 13 14 15 16 17 18 19 20 21 22 23 24 25 26 27 28 29 30 31 32 33 34 35 36 37 38 39 40 41 42 43 44 45 46 47 48 49 50
000
ASUS43 KIND 220509
RWRIN

WEATHER ROUNDUP FOR INDIANA
NATIONAL WEATHER SERVICE INDIANAPOLIS IN
1200 AM EST SUN JAN 22 2017

NOTE: "FAIR" INDICATES FEW OR NO CLOUDS BELOW 12,000 FEET WITH NO
SIGNIFICANT WEATHER AND/OR OBSTRUCTIONS TO VISIBILITY.

* - STATION DOES NOT REPORT WEATHER SUCH AS PRECIPITATION OR FOG.

+ - STATION NOT QUALITY CONTROLLED BY THE NATIONAL WEATHER SERVICE.
    USE DATA WITH CAUTION...ESPECIALLY DEWPOINT AND RELATIVE
    HUMIDITY OBSERVATIONS.

INZ001>003-010>013-019-020-220600-
NORTHWEST INDIANA

CITY           SKY/WX    TMP DP  RH WIND       PRES   REMARKS
GARY /AIRPORT/   N/A     38  38 100 CALM      29.60S FOG
KNOX *+          N/A     39  34  81 CALM      29.59F VSB 1/4
LA PORTE +     FOG       37  37 100 CALM      29.60S VSB 1/4
MICHIGAN CITY+ FOG       41  41 100 CALM      29.60S VSB 1
MONTICELLO +   PTCLDY    43  42  95 NW5       29.60R FOG
RENSSELAER +   FOG       43  43 100 CALM      29.60S VSB 1/4
VALPARAISO     FOG       41  41 100 CALM      29.60S VSB 1/4

$$

LMZ046-743>745-220600-
SOUTHERN LAKE MICHIGAN

STATION/POSITION TIME  TEMP    WIND        PRES    WAVE
                       AIR SEA DIR/SP/G            HT
                 (UTC) (F)     (DEG/KT/KT) (MB)    (FT)
BURNS HARBOR     0440   48     200/  3/  4 1003.0S
MICHIGAN CITY    0440   49     200/  3/  4   N/A

$$

INZ004-005-014>016-021>024-220600-
NORTH CENTRAL INDIANA

CITY           SKY/WX    TMP DP  RH WIND       PRES   REMARKS
GOSHEN         FOG       41  38  89 CALM      29.60S VSB 1/4
LOGANSPORT +   PTCLDY    46  46 100 CALM      29.61S
PERU/GRISSOM   CLOUDY    52  52 100 SW8       29.58F
ROCHESTER +    FOG       43  43 100 CALM      29.61S VSB 1/4
SOUTH BEND     FOG       37  37 100 CALM      29.60F VSB 1/4
WARSAW +       FOG       45  45 100 CALM      29.61S VSB 1/4

$$

INZ006>009-017-018-025>027-220600-
NORTHEAST INDIANA

CITY           SKY/WX    TMP DP  RH WIND       PRES   REMARKS
ANGOLA *+      CLOUDY    39  36  87 CALM      29.61F VSB 0
AUBURN +       FOG       45  43  93 CALM      29.62F VSB 1/4
FORT WAYNE     CLOUDY    51  48  89 CALM      29.62S
HUNTINGTON +   CLOUDY    51  50  96 CALM      29.61S
KENDALLVILLE + PTCLDY    49  49 100 S5        29.61F FOG

$$

INZ028-029-035-036-043>045-051>053-220600-
WEST CENTRAL INDIANA

CITY           SKY/WX    TMP DP  RH WIND       PRES   REMARKS
CRAWFORDSVL +  MOCLDY    48  48 100 S3        29.60S
GREENCASTLE +  MOCLDY    50  48  93 CALM      29.61S
LAFAYETTE      TSTM      51  51 100 S5        29.59S VSB 1
TERRE HAUTE    CLEAR     49  46  90 CALM      29.60S

$$

INZ030>032-037>040-046>048-054>057-064-065-220600-
CENTRAL INDIANA

CITY           SKY/WX    TMP DP  RH WIND       PRES   REMARKS
CP ATTERBURY + MOCLDY    52  48  87 CALM      29.63S
FRANKFORT +    CLOUDY    52  50  92 S3        29.62S
GREENWOOD *+   CLOUDY    55  51  86 SE7       29.62F
INDIANAPOLIS   CLOUDY    54  49  83 SE7       29.61S
-EAGLE CREEK   CLOUDY    53  48  83 CALM      29.61S
KOKOMO +       TSTM      53  49  86 W5        29.62S
MARION +       CLOUDY    52  50  93 S6        29.61F
MT COMFORT *+  MOCLDY    54  50  87 S5        29.62F
SHELBYVILLE    CLOUDY    54  49  83 SE7       29.62S
ZIONSVILLE +   MOCLDY    52  49  88 S5        29.62S

$$

INZ033-034-041-042-049-050-058-059-220600-
EAST CENTRAL INDIANA

CITY           SKY/WX    TMP DP  RH WIND       PRES   REMARKS
MUNCIE         CLOUDY    56  51  84 S8        29.62F

$$

INZ060-061-067>069-081>083-085>088-220600-
SOUTHWEST INDIANA

CITY           SKY/WX    TMP DP  RH WIND       PRES   REMARKS
EVANSVILLE     PTCLDY    54  48  80 CALM      29.59F
HUNTINGBURG *+ PTCLDY    55  48  76 SE6       29.60F
WASHINGTON +   PTCLDY    48  46  93 S6        29.60S

$$

INZ062-063-066-070>080-084-089>092-220600-
SOUTH CENTRAL AND SOUTHEAST INDIANA

CITY           SKY/WX    TMP DP  RH WIND       PRES   REMARKS
BLOOMINGTON    PTCLDY    55  48  77 SE6       29.61S
MADISON *+     CLOUDY    55  50  82 S5        29.66F
NORTH VERNON + CLOUDY   N/A N/A N/A S3        29.65S
SEYMOUR +      CLOUDY    54  52  94 CALM      29.64R

$$




USA.gov is the U.S. government's official web portal to all federal, state and local government web resources and services.